Wind from 180 at 4 knots

Air temperature 4.0° C
Dewpoint -7.0° C

Last reported at 2014-Apr-24 07:20 UTC.
Time now 2014-Apr-24 09:30 UTC

Location: N 62°32' E 017°27'.
View on Google Maps.

See reports from other nearby stations

Tides Stations Pressure Air Temp Water Temp Dewpoint Dewpoint depression Visibility Wind Speed Wind Dir Waves Ship positions

  
sailing weather and tide predictions

SUNDSVALL-HARNOSAND FLY weather

date/time (UTC)wind fromknots sea level pressurealtimeterstation pressurevisibilityair tempwater tempwave heightnotes
2014-Apr-24 08:20 150 5 6.0
2014-Apr-24 07:50 150 4 5.0
2014-Apr-24 07:20 180 4 4.0
2014-Apr-24 06:50 3.0
2014-Apr-24 06:20 1.0
2014-Apr-24 05:50 -0.0
2014-Apr-24 05:20 -1.0
2014-Apr-24 04:50 360 2 -3.0
2014-Apr-24 04:20 350 3 -3.0
2014-Apr-24 03:50 340 3 -4.0
2014-Apr-24 03:20 330 2 5.4-4.0
2014-Apr-24 02:50 330 2 5.4-4.0
2014-Apr-24 02:20 340 3 5.4-4.0
2014-Apr-24 01:50 340 2 5.4-4.0
2014-Apr-24 01:20 330 3 5.4-3.0
2014-Apr-24 00:50 340 2 5.4-3.0
2014-Apr-24 00:20 320 3 5.4-3.0
2014-Apr-23 23:50 330 3 -3.0
2014-Apr-23 23:20 330 2 -3.0
2014-Apr-23 22:50 340 3 -3.0
2014-Apr-23 22:20 330 2 -2.0
2014-Apr-23 21:50 350 2 -3.0
2014-Apr-23 21:20 350 3 -2.0
2014-Apr-23 20:50 340 4 -2.0
2014-Apr-23 20:20 340 3 -2.0
2014-Apr-23 19:50 350 2 -1.0
2014-Apr-23 19:20 -0.0
2014-Apr-23 18:50 1.0
2014-Apr-23 18:20 190 2 3.0
2014-Apr-23 17:50 190 3 3.0
2014-Apr-23 17:20 180 5 4.0
2014-Apr-23 16:50 170 7 5.0
2014-Apr-23 16:20 160 7 5.0
2014-Apr-23 15:50 170 9 5.0
2014-Apr-23 15:20 170 8 5.0
2014-Apr-23 14:50 160 8 5.0
2014-Apr-23 14:20 150 8 6.0
2014-Apr-23 13:50 150 9 6.0
2014-Apr-23 13:20 150 9 6.0
2014-Apr-23 12:50 140 9 7.0
2014-Apr-23 12:20 160 11 6.0
2014-Apr-23 11:50 140 8 6.0
2014-Apr-23 11:20 150 9 6.0
2014-Apr-23 10:50 140 8 6.0
2014-Apr-23 10:20 150 9 6.0
2014-Apr-23 09:50 170 11 6.0
2014-Apr-23 09:20 7.0
2014-Apr-23 08:50 6.0
2014-Apr-23 08:20 360 4 6.0
2014-Apr-23 07:50 020 5 5.0
2014-Apr-23 07:20 360 6 5.0
2014-Apr-23 06:50 050 5 5.0
2014-Apr-23 06:20 040 6 4.0
2014-Apr-23 05:50 330 7 3.0
2014-Apr-23 05:20 310 6 2.0
2014-Apr-23 04:50 310 7 1.0
2014-Apr-23 04:20 310 8 -0.0
2014-Apr-23 03:50 300 8 -0.0
2014-Apr-23 03:20 320 9 5.4-1.0
2014-Apr-23 02:50 320 7 5.4-0.0
2014-Apr-23 02:20 310 8 5.4-0.0
2014-Apr-23 01:50 300 7 5.4-0.0
2014-Apr-23 01:20 330 4 5.4-0.0
2014-Apr-23 00:50 310 4 5.4-0.0
2014-Apr-22 23:50 320 5 2.0
2014-Apr-22 23:20 300 7 2.0
2014-Apr-22 22:50 320 7 3.0
2014-Apr-22 22:20 320 8 3.0
2014-Apr-22 21:50 320 7 4.0
2014-Apr-22 21:20 330 8 5.0
2014-Apr-22 20:50 330 8 5.0
2014-Apr-22 20:20 340 8 5.0
2014-Apr-22 19:50 330 7 5.0
2014-Apr-22 19:20 360 4 6.0
2014-Apr-22 18:50 030 5 8.0
2014-Apr-22 18:20 010 5 9.0
2014-Apr-22 17:50 360 7 10.0
2014-Apr-22 17:20 340 11 12.0
2014-Apr-22 16:50 340 13 13.0
2014-Apr-22 16:20 330 11 13.0
2014-Apr-22 15:50 350 10 14.0
2014-Apr-22 15:20 350 12 13.0
2014-Apr-22 14:50 360 10 14.0
2014-Apr-22 14:20 360 9 14.0
2014-Apr-22 13:50 340 11 14.0
2014-Apr-22 13:20 360 10 gusting 20 14.0
2014-Apr-22 12:50 350 9 14.0
2014-Apr-22 12:20 340 8 14.0
2014-Apr-22 11:50 350 10 13.0
2014-Apr-22 11:20 350 10 13.0
2014-Apr-22 10:50 320 8 13.0
2014-Apr-22 10:20 320 10 12.0
2014-Apr-22 09:50 320 10 12.0
2014-Apr-22 09:20 330 8 11.0